Home > Weather > Frankfurt > Past weeks

Flag for Germany Past Weather in Frankfurt, Hesse, Germany — Yesterday and Last 2 Weeks

Now
75 °F

Passing clouds.


Feels Like: 78 °F
Forecast: 61 / 86 °F
Wind: 8 mph from East

Location: Frankfurt-M-Flughafen Airport

Current Time: Aug 24, 2016 at 10:48:01 AM

Latest Report: Aug 24, 2016 at 10:20 AM


Visibility: N/A

Pressure: 30.24 "Hg

Humidity: 57%

Dew Point: 59 °F

Location of FrankfurtLocation

Past Weather in Frankfurt — Graph

°F

Frankfurt Temperature Yesterday

Maximum temperature yesterday: 82 °F (at 3:20 PM)
Minimum temperature yesterday: 52 °F (at 6:20 AM)
Average temperature yesterday: 68 °F

High & Low Weather Summary for the Past Weeks

 TemperatureHumidityPressure
High84 °F (Aug 13, 4:50 PM)100% (Aug 12, 6:20 AM)30.39 "Hg (Aug 12, 6:20 AM)
Low43 °F (Aug 11, 6:20 AM)34% (Aug 16, 4:50 PM)29.80 "Hg (Aug 18, 1:50 PM)
Average65 °F69%30.11 "Hg
* Reported Aug 9 9:20 AM — Aug 24 9:20 AM, Frankfurt, Weather by CustomWeather, © 2016

Note: Actual official high and low records may vary slightly from our data, if they occured in-between our weather recording intervals... More about our weather records

Advertising

Frankfurt Weather History for the Previous 24 Hours

Scroll right to see more
 ConditionsComfort  
Time TempWeatherWind HumidityBarometerVisibility
9:20 AM
Wed, Aug 24
72 °FSunny.9 mph65%30.24 "Hg10 mi
8:50 AM68 °FSunny.10 mph73%30.24 "Hg10 mi
8:20 AM66 °FSunny.9 mph73%30.24 "Hg10 mi
7:50 AM64 °FPassing clouds.6 mph78%30.24 "HgN/A
7:20 AM63 °FClear.8 mph83%30.24 "Hg10 mi
6:50 AM61 °FClear.6 mph83%30.24 "Hg10 mi
6:20 AM61 °FClear.6 mph83%30.24 "Hg10 mi
5:50 AM61 °FPassing clouds.6 mph83%30.24 "HgN/A
5:20 AM61 °FClear.6 mph83%30.24 "Hg10 mi
4:50 AM61 °FClear.7 mph83%30.24 "Hg10 mi
4:20 AM63 °FClear.2 mph77%30.24 "Hg10 mi
3:50 AM64 °FPassing clouds.3 mph73%30.24 "HgN/A
3:20 AM64 °FClear.5 mph78%30.24 "Hg10 mi
2:50 AM64 °FClear.6 mph73%30.24 "Hg10 mi
2:20 AM64 °FClear.6 mph73%30.24 "Hg10 mi
1:50 AM64 °FClear.3 mph78%30.24 "Hg10 mi
1:20 AM66 °FClear.6 mph73%30.24 "Hg10 mi
12:50 AM64 °FClear.2 mph78%30.24 "Hg10 mi
12:20 AM66 °FClear.5 mph73%30.24 "Hg10 mi
11:50 PM
Tue, Aug 23
64 °FPassing clouds.3 mph78%30.27 "HgN/A
11:20 PM63 °FClear.2 mph83%30.27 "Hg10 mi
10:50 PM64 °FClear.6 mph73%30.27 "Hg10 mi
10:20 PM64 °FClear.2 mph73%30.27 "Hg10 mi
9:50 PM66 °FClear.6 mph68%30.27 "Hg10 mi
9:20 PM70 °FSunny.7 mph60%30.27 "Hg10 mi
8:50 PM77 °FSunny.6 mph44%30.27 "Hg10 mi
8:20 PM79 °FSunny.7 mph39%30.27 "Hg10 mi
7:50 PM79 °FPassing clouds.8 mph42%30.24 "HgN/A
7:20 PM81 °FSunny.9 mph39%30.24 "Hg10 mi
6:50 PM82 °FSunny.5 mph37%30.27 "Hg10 mi
6:20 PM82 °FPassing clouds.7 mph35%30.27 "HgN/A
5:50 PM82 °FPassing clouds.6 mph37%30.27 "HgN/A
5:20 PM82 °FSunny.6 mph37%30.27 "Hg10 mi
4:50 PM82 °FSunny.5 mph35%30.27 "Hg10 mi
4:20 PM82 °FSunny.5 mph35%30.27 "Hg10 mi
3:50 PM82 °FSunny.3 mph40%30.30 "Hg10 mi
3:20 PM82 °FSunny.3 mph40%30.30 "Hg10 mi
2:50 PM81 °FSunny.5 mph39%30.30 "Hg10 mi
2:20 PM79 °FSunny.5 mph42%30.30 "Hg10 mi
1:50 PM79 °FSunny.3 mph48%30.33 "Hg10 mi
1:20 PM77 °FPassing clouds.3 mph51%30.33 "HgN/A
12:50 PM77 °FPassing clouds.3 mph54%30.33 "HgN/A
12:20 PM75 °FPassing clouds.3 mph54%30.36 "HgN/A
11:50 AM73 °FPassing clouds.3 mph61%30.36 "HgN/A
11:20 AM73 °FPassing clouds.2 mph61%30.36 "HgN/A
10:50 AM70 °FPassing clouds.3 mph64%30.36 "HgN/A
10:20 AM70 °FPassing clouds.3 mph69%30.39 "HgN/A
Weather by CustomWeather, © 2016

See weather overviewHow to use our weather pages